DELTA 1 R/B, 862

Orbit data source: Space-Track

DELTA 1 R/B, 862 is space debris in HEO originally from a launch on Wed, 19 Aug 1964 UTC launched from the Air Force Eastern Test Range (AFETR). Debris objects in space refer to the collection of defunct objects orbiting the Earth. Examples of debris include non-operational satellites, rocket bodies, and fragments generated from explosions, collisions, or faulty payload assembly.

Loading next visibility...
Identifier
862, 1964-047B
Orbit
HEO
Country
Flag of USUS
Related business
Manufacturer
ABL
Mission
Spacecraft
Bus & Motor
ALTAIR, Unknown motor
Mass
~38 kg wet, ~38 kg dry
Launch date (UTC)
1964-08-19 (62 years ago)
Launch vehicle
Unknown
Launch site
Air Force Eastern Test Range (AFETR)
Object type
Payload
Rocket body
Debris
Shape & HBR
Unknown
Radar Cross Section
Medium (>0.1 m² and <1 m²)

Expand to show TLE details & history
Last TLE update: 19 hours ago

TLE from 19 hours ago
0 DELTA 1 R/B
1 00862U 64047B   26119.63009381  .00000084  00000-0  00000-0 0  9998
2 00862  16.7905 347.2228 7110980   0.1656   0.1840  2.05107611257165
Epoch: 2026-04-29T15:07Z
TLE epoch observation values (Epoch: 2026-04-29T15:07:20.105Z)
Latitude
0.00008°
Longitude
-97.20872°
Altitude
1,182.661 km
Speed
9.497 km/s
True Right ascension
23h 08m 51s
True Declination
0° 00' 00"
Sunlit
Object was in daylight at epoch
Visualization orbit readout
Latitude
Unknown
Longitude
Unknown
Altitude
Unknown
Speed
Unknown
Apparent Right ascension
Unknown
Apparent Declination
Unknown
Sunlit
N/A
Visualization observer readout
Local Sidereal Time
17:27:11
Azimuth
Unknown
Elevation
Unknown
Doppler factor
Unknown
Orbital elements
Apogee altitude
38,402.76 km
Perigee altitude
1,182.675 km
Semi-major axis
26,170.855 km
Eccentricity
0.7111
Inclination
16.7905°
RAAN
347.2228°
Arg. of periapsis
0.1656°
True anomaly
1.54983°
Mean anomaly
0.184°
Eccentric anomaly
0.63686°
Mean motion
0.51264 °/min
Orbital period
702.24 mins
BSTAR
0
Loading maneuver chart data...
Computing Atmospheric mass density...
Loading historical data...
Loading historical data...
Loading historical data...
Loading historical data...
Loading historical data...
Loading historical data...
Loading historical data...
Other satellites on launch #47 in the year 1964 (1964-08-19 UTC)

Documentation

Showing up to 5 results
|